www.pogodaiklimat.ru

Погода и климат >> Архив погоды >> Россия >> Волгоградская область >> Котельниково


ПОГОДА в Котельниково

  • Прогноз погоды в Котельниково
  • Монитор погоды в Котельниково

АРХИВ ПОГОДЫ в Котельниково

Время (UTC), дата Ветер
(напр.,м/с)
 
Видим.   Явления Облачность Т
(С)
Тd
(С)
f
(%)
Тe
(С)
Тes
(С)
Комфортность P
(гПа)
Po
(гПа)
Тmin
(С)
Tmax
(С)
R
(мм)
R24
(мм)
S
(см)
00 16.09 ЮВ 1 10 км ясно +4.3 -1.6 65 +3 +3 1020.2 1014.1
03 16.09 штиль 0 10 км ясно +4.1 -1.4 67 +3 +3 1019.9 1013.8 +3.7
06 16.09 Ю 7 10 км ясно +19.6 +0.8 28 +19 +21 1018.5 1012.7
09 16.09 ЮЗ 6
{10}
10 км ясно +23.4 -1.4 19 +22 +26 комфорт 1015.7 1010.1
12 16.09 ЮЗ 6-10
{11}
10 км ясно +25.4 -2.3 16 +23 +26 комфорт 1012.8 1007.2
15 16.09 ЮЗ 3
{10}
10 км ясно +23.4 -1.8 19 +22 +22 комфорт 1011.4 1005.8 +25.6
18 16.09 Ю 1 10 км ясно +12.9 -1.6 37 +13 +13 1011.7 1005.9
21 16.09 ЮЗ 2 10 км ясно +14.1 -1.0 35 +14 +14 1011.2 1005.4
00 17.09 ЮЗ 2 10 км ясно +13.9 +0.1 39 +14 +14 1010.3 1004.5
03 17.09 ЮЗ 4 10 км ясно +12.6 +2.9 52 +11 +11 1010.0 1004.2 +11.2
06 17.09 ЮЗ 6
{10}
10 км ясно +19.5 +6.7 43 +20 +22 1009.6 1003.9
09 17.09 ЮЗ 7-12
{13}
10 км ясно +26.1 +5.5 27 +25 +28 комфорт 1007.9 1002.4
12 17.09 З 6-11
{16}
10 км ясно +27.2 +7.5 29 +27 +29 жарко 1006.5 1001.0
15 17.09 СЗ 5
{11}
10 км 8/8 600 м
[Cb calv]
+23.6 +9.5 41 +25 +25 комфорт 1006.7 1001.1 +27.7
18 17.09 СЗ 4 10 км 10/10 600 м
[Cb calv]
+18.7 +9.8 56 +19 +19 1009.1 1003.4
21 17.09 Ю 1 10 км в посл. час ливневой дождь 10/10 600 м
[Cb calv]
+15.2 +13.6 90 +16 +16 1008.8 1003.1
00 18.09 ЮЗ 2 10 км в посл. час ливневой дождь 10/10 600 м
[Cb calv]
+14.9 +13.2 90 +15 +15 1009.4 1003.7
03 18.09 Ю 1 10 км 10/10 600 м
[Cb calv]
+13.3 +11.9 91 +13 +13 1008.8 1003.0 +13.3 5
06 18.09 З 5 10 км 4/0
[Ac As]
+17.9 +13.9 77 +17 +19 1009.5 1003.8
09 18.09 ЮЗ 7-10
{13}
10 км 3/1 600 м
[Cu hum Ac trans]
+22.2 +11.4 50 +24 +27 комфорт 1008.8 1003.2
12 18.09 ЮЗ 8-12
{13}
10 км 3/3 600 м
[Cu hum]
+25.2 +10.5 40 +26 +27 жарко 1005.8 1000.2
15 18.09 З 11-21
{27}
4000 м слаб. ливневой дождь {гроза} 10/10 300 м
[Cb calv]
+18.5 +14.6 78 +18 +18 1005.4 999.8 +25.7 28
18 18.09 ЮЗ 6-10
{22}
10 км слаб. ливневой дождь {гроза} 10/10 300 м
[Cu med, cong]
+17.0 +14.6 86 +16 +16 1007.4 1001.7
21 18.09 З 6-11
{13}
10 км слаб. ливневой дождь 10/10 300 м
[Cu med, cong]
+13.8 +6.7 62 +12 +12 1010.9 1005.1
00 19.09 З 4
{11}
10 км ясно +11.7 +4.2 60 +10 +10 1013.1 1007.2
03 19.09 ЮЗ 3 10 км ясно +8.9 +5.0 77 +7 +7 1014.9 1009.0 +8.9 4
06 19.09 З 6
{10}
10 км ясно +12.8 +5.8 62 +11 +12 1017.1 1011.3 +8.9
09 19.09 З 7-11
{11}
10 км 3/3 600 м
[Cu hum]
+15.2 +4.5 49 +14 +15 1018.1 1012.2
12 19.09 З 6
{12}
10 км 5/5 600 м
[Cu med, cong]
+16.7 +3.7 42 +16 +17 1018.3 1012.5
15 19.09 З 4
{11}
10 км 3/3 600 м
[Sc diur, vesp]
+14.9 +4.7 50 +14 +14 1018.8 1013.0 +17.2
18 19.09 СЗ 2 10 км ясно +11.7 +5.1 64 +11 +11 1020.6 1014.7
21 19.09 Ю 2 10 км ясно +6.5 +5.1 91 +4 +4 1020.2 1014.2
00 20.09 Ю 1 10 км 6/0
[Ac trans]
+5.0 +3.4 89 +4 +4 1019.8 1013.8
03 20.09 ЮВ 1 10 км 10/0
[Ac trans]
+6.3 +4.8 90 +5 +5 1019.7 1013.7 +4.6
06 20.09 Ю 2 10 км 10/10 600 м
[Sc]
+11.6 +7.5 76 +11 +11 1019.4 1013.5 +5.0
09 20.09 Ю 2 10 км 10/10 600 м
[Sc]
+16.0 +5.0 48 +16 +16 1017.7 1011.9
12 20.09 Ю 2 10 км 10/10 600 м
[Cu med, cong]
+16.0 +4.5 46 +16 +16 1016.1 1010.3
15 20.09 З 2 4000 м слаб. ливневой дождь 10/10 300 м
[Cb cap]
+11.5 +9.8 89 +10 +10 1016.7 1010.9 +17.0 2
18 20.09 СЗ 2 4000 м слаб. ливневой дождь 10/10 300 м
[Cb cap]
+10.0 +8.4 90 +8 +8 1016.0 1010.1
21 20.09 СЗ 1 4000 м слаб. ливневой дождь 10/10 300 м
[Cb cap]
+9.4 +8.0 91 +9 +9 1015.7 1009.8
00 21.09 С 1 10 км слаб. дождь 10/10 300 м
[Frnb Ns]
+8.7 +7.0 89 +8 +8 1015.0 1009.1
03 21.09 З 2 10 км слаб. дождь 10/10 600 м
[Sc]
+8.6 +6.7 88 +7 +7 1015.0 1009.1 +8.3 14
06 21.09 З 3 10 км 4/4 600 м
[Cb calv]
+11.1 +8.2 82 +9 +11 1015.5 1009.6
09 21.09 З 6
{10}
10 км 8/8 600 м
[Cu med, cong]
+13.6 +7.2 65 +12 +12 1014.9 1009.0
12 21.09 З 5
{10}
10 км 8/8 600 м
[Cb calv]
+13.8 +6.9 63 +12 +13 1014.2 1008.4
15 21.09 ЮЗ 2
{10}
10 км гроза без осадков {ливн. осадки} 8/8 600 м
[Cb calv]
+9.7 +6.0 78 +8 +8 1015.1 1009.2 +14.7 1
18 21.09 З 2 10 км в посл. час ливневой дождь {гроза} 10/10 600 м
[Cb calv]
+8.0 +5.9 87 +6 +6 1016.3 1010.4
21 21.09 З 3 10 км 10/0 600 м
[]
+8.1 +6.0 87 +5 +5 1016.6 1010.6
00 22.09 З 4 10 км 3/0
[Ac As]
+7.0 +5.0 87 +3 +3 1016.7 1010.7
03 22.09 З 3 10 км ясно +5.6 +3.9 89 +2 +2 1017.4 1011.4 +5.6 3
06 22.09 ЮЗ 6 10 км 4/0
[Ac As]
+10.1 +4.9 70 +7 +8 1017.2 1011.3 +5.5
09 22.09 ЮЗ 10-15
{16}
10 км 10/10 600 м
[Cu med, cong]
+13.5 +4.1 53 +11 +11 1014.5 1008.7
12 22.09 ЮЗ 11-19
{19}
10 км в посл. час ливневой дождь 9/9 600 м
[Cu med, cong]
+14.6 +6.9 60 +12 +12 1011.3 1005.5
15 22.09 ЮЗ 8-12
{21}
10 км {ливн. осадки} 10/10 600 м
[Cu med, cong]
+13.9 +8.6 70 +11 +11 1010.9 1005.1 +14.8 0.3
18 22.09 З 10-17
{17}
10 км 9/9 600 м
[Cu med, cong]
+15.1 +8.1 63 +13 +13 1011.5 1005.7
21 22.09 ЮЗ 6-10
{17}
10 км ясно +12.8 +9.0 78 +10 +10 1011.4 1005.6

 

Местоположение метеостанции Котельниково (Волгоградская область, Россия): широта 47.63 долгота 43.15 высота над уровнем моря 47 м.

В архиве по умолчанию представлена погода в Котельниково за последнюю неделю. Архивные данные за месяц целиком и за предыдущие месяцы, начиная с января 2011 года, Вы можете получить, выбрав интересующий диапазон дат из раскрывающегося списка и нажав кнопку "Ввод!".


*Определитесь, кто Вы:
робот инопланетянин человек

Внимание! Время в таблицах - всемирное. Для получения местного времени необходимо прибавить поправку, которая равна 3 ч.

Смотрите также архив погоды в соседних городах и на ближайших метеорологических станциях:

Погода в Зимовниках (Ростовская область, Россия) (73 км)
Погода в Цимлянске (Ростовская область, Россия) (77 км)
Погода в Нижнем Чире (Волгоградская область, Россия) (78 км)
Погода в Кетченерах (Калмыкия, Россия) (112 км)
Погода в Калаче-на-Дону (Волгоградская область, Россия) (119 км)
Погода в Малых Дербетах (Калмыкия, Россия) (121 км)
Погода в Ремонтном (Ростовская область, Россия) (124 км)
Погода в Морозовске (Ростовская область, Россия) (124 км)
Погода в Волгограде город (Волгоградская область, Россия) (151 км)
Погода в Константиновске (Ростовская область, Россия) (154 км)

Пояснения к столбцам:

Ветер - указаны скорость ветра в м/с - средняя за 10 мин, порывы в срок и между сроками (в фигурных скобках) и направление, откуда дует ветер: С - северный, СВ - северо-восточный, В - восточный, ЮВ - юго-восточный, Ю - южный, ЮЗ - юго-западный, З - западный, СЗ - северо-западный.
Видимость - горизонтальная дальность видимости в метрах или километрах. При видимости от 1 до 10 км при отсутствии осадков обычно наблюдается дымка, при ухудшении видимости до 1 км и менее - туман. В сухую погоду видимость может ухудшаться дымом, пылью или мглою.
Явления - указаны атмосферные явления, наблюдавшиеся в срок или в последний час перед сроком; фигурными скобками обозначены явления, наблюдавшиеся между сроками (за 1-3 часа до срока); квадратными скобками обозначены град или гололедные отложения с указанием их диаметра в мм.
Облачность - указаны через наклонную черту общая и нижняя облачность в баллах и высота нижней границы облаков в метрах; квадратными скобками обозначены формы облаков: Ci - перистые, Cs - перисто-слоистые, Cc - перисто-кучевые, Ac - высококучевые, As - высокослоистые, Sc - слоисто-кучевые, Ns - слоисто-дождевые, Cu - кучевые, Cb - кучево-дождевые. Подробнее классификацию облаков см. в Атласе облаков (PDF).
T - Температура воздуха - температура, измеренная на высоте 2 м над землей.
Td - Температура точки росы - температура, при понижении до которой содержащийся в воздухе водяной пар достигнет насыщения.
f - Относительная влажность воздуха - влажноcть воздуха, измеренная на высоте 2 м над землей.
Te - Эффективная температура - температура, которую ощущает одетый по сезону человек в тени. Характеристика душности погоды. При расчете учитывается влияние влажности воздуха и скорости ветра на теплоощущения человека.
Tes - Эффективная температура на солнце - температура, которую ощущает человек, с поправкой на солнечный нагрев. Характеристика знойности погоды. Зависит от высоты солнца над горизонтом, облачности и скорости ветра. Ночью, в пасмурную погоду, а также при ветре 12 м/с и более поправка равна нулю.
P - Атмосферное давление - приведенное к уровню моря атмосферное давление.
Po - Атмосферное давление - измеренное на уровне метеостанции атмосферное давление.
Tmin - Минимальная температура - минимум температуры воздуха на высоте 2 м над землей.
Tmax - Максимальная температура - максимум температуры воздуха на высоте 2 м над землей.
R - Количество осадков - Количество выпавших осадков за период времени, мм. При наведении курсора мыши на число - период времени, за который выпало указанное количество осадков.
R24 - Количество осадков - Количество выпавших осадков за 24 часа, мм.
S - Снежный покров - Высота снежного покрова, см. При наведении курсора мыши на число - состояние снежного покрова и степень покрытия местности в баллах.